Retour au catalogue

STARLINK-35248

ActifCommunicationsSSO
NORAD 65598·PAYLOAD·🇺🇸 United States

Lancé Sep 13, 2025 depuis Cape Canaveral Space Force Station

Loading…

Prochains Passages (prochaines 24 heures)

TLE

FraisSource: CelesTrak SupGP

Époque: Sep 14, 2026, 21:08 UTC

1 65598C 25207G   26257.88104167  .02226300  00000+0  10495+0 0  2575
2 65598  97.2841 320.5936 0001855  87.7146 268.6575 15.18451331    18

Suivez STARLINK-35248 en temps réel avec AllMySat

Download on the App Store